Westfield, IN

12:18 PM EDT on September 26, 2016 (GMT -0400)
Indianapolis Terry

Weather History for KTYQ - March, 2013

Change the Weather History Date:

Tuesday, March 5, 2013

  Actual Average (KEYE) Record (KEYE)
Temperature  
Mean Temperature 32 °F 38 °F  
Max Temperature 36 °F 47 °F 67 °F (2009)
Min Temperature 28 °F 29 °F 8 °F (2015)
Degree Days  
Heating Degree Days 33 27  
Month to date heating degree days 138  
Since 1 July heating degree days 4263  
Cooling Degree Days 0 0  
Month to date cooling degree days 0  
Year to date cooling degree days 0  
Moisture  
Dew Point 29 °F    
Average Humidity 83    
Maximum Humidity 92    
Minimum Humidity 73    
Precipitation  
Precipitation 0.21 in 0.07 in 1.46 in (2011)
Month to date precipitation 0.34  
Year to date precipitation 4.68  
Sea Level Pressure  
Sea Level Pressure 29.78 in    
Wind  
Wind Speed 8 mph (ENE)    
Max Wind Speed 14 mph    
Max Gust Speed 20 mph    
Visibility 6 miles    
Events Rain , Snow    
T = Trace of Precipitation, MM = Missing Value Source: NWS Daily Summary

Daily Weather History Graph

Daily Weather History Graph

Search for Another Location

Airport or City:

Trip Planner

Search our weather history database for the weather conditions in past years. The results will help you decide how hot, cold, wet, or windy it might be!

Date:

Astronomy

Mar. 05, 2013 Rise Set
Actual Time 7:11 AM EST 6:41 PM EST
Civil Twilight 6:44 AM EST 7:08 PM EST
Nautical Twilight 6:13 AM EST 7:39 PM EST
Astronomical Twilight 5:42 AM EST 8:11 PM EST
Moon 2:23 AM EST (3/5) 12:20 PM EST (3/5)
Length of Visible Light 12h 23m
Length of Day
11h 29m
Last Quarter, 41% of the Moon is Illuminated
Mar 5
Last Quarter
Mar 11
New
Mar 19
First Quarter
Mar 27
Full
Apr 3
Last Quarter

Hourly Weather History & Observations

Time (EST) Temp. Windchill Dew Point Humidity Pressure Visibility Wind Dir Wind Speed Gust Speed Precip Events Conditions
12:35 AM 34.3 °F 27.7 °F 27.5 °F 76% 29.97 in 10.0 mi East 8.1 mph - N/A   Overcast
12:55 AM 34.3 °F 26.5 °F 27.5 °F 76% 29.96 in 10.0 mi East 10.4 mph - N/A   Overcast
1:15 AM 34.7 °F 27.5 °F 27.3 °F 74% 29.96 in 10.0 mi East 9.2 mph - N/A   Overcast
1:35 AM 34.7 °F 27.5 °F 27.3 °F 74% 29.95 in 10.0 mi East 9.2 mph - N/A   Overcast
1:55 AM 34.9 °F 29.0 °F 27.1 °F 73% 29.94 in 10.0 mi East 6.9 mph - N/A   Overcast
2:15 AM 34.9 °F 27.7 °F 27.1 °F 73% 29.94 in 10.0 mi East 9.2 mph - N/A   Overcast
2:35 AM 34.7 °F 27.5 °F 27.3 °F 74% 29.93 in 10.0 mi East 9.2 mph - N/A   Overcast
2:55 AM 34.7 °F 28.1 °F 27.5 °F 75% 29.92 in 10.0 mi East 8.1 mph - N/A   Overcast
3:15 AM 34.7 °F 28.1 °F 27.5 °F 75% 29.92 in 10.0 mi ESE 8.1 mph - N/A   Overcast
3:35 AM 34.7 °F 26.9 °F 27.5 °F 75% 29.91 in 10.0 mi East 10.4 mph - N/A   Overcast
3:55 AM 34.7 °F 28.1 °F 27.3 °F 74% 29.90 in 10.0 mi East 8.1 mph - N/A   Overcast
4:15 AM 34.3 °F 27.7 °F 27.5 °F 76% 29.89 in 10.0 mi East 8.1 mph - N/A   Light Drizzle
4:35 AM 34.5 °F 27.3 °F 27.5 °F 76% 29.88 in 10.0 mi East 9.2 mph - N/A   Overcast
4:55 AM 34.3 °F 28.4 °F 27.5 °F 76% 29.88 in 10.0 mi East 6.9 mph - N/A   Overcast
5:15 AM 34.3 °F 27.7 °F 27.5 °F 76% 29.87 in 10.0 mi ESE 8.1 mph - N/A   Overcast
5:55 AM 34.5 °F 27.9 °F 27.7 °F 76% 29.87 in 10.0 mi East 8.1 mph - N/A   Overcast
6:15 AM 34.3 °F 28.4 °F 27.9 °F 77% 29.87 in 10.0 mi East 6.9 mph - N/A   Overcast
6:35 AM 34.3 °F 27.7 °F 28.0 °F 78% 29.86 in 10.0 mi East 8.1 mph - N/A   Overcast
6:55 AM 34.7 °F 28.8 °F 28.0 °F 77% 29.86 in 10.0 mi East 6.9 mph - N/A   Overcast
7:15 AM 34.3 °F 28.4 °F 28.4 °F 79% 29.87 in 10.0 mi East 6.9 mph - N/A   Overcast
7:55 AM 34.7 °F 28.1 °F 28.4 °F 78% 29.85 in 10.0 mi East 8.1 mph - N/A   Overcast
8:15 AM 34.7 °F 27.5 °F 28.4 °F 78% 29.84 in 10.0 mi East 9.2 mph - N/A   Overcast
8:35 AM 34.9 °F 27.7 °F 28.9 °F 79% 29.84 in 10.0 mi East 9.2 mph - N/A   Overcast
8:55 AM 35.2 °F 28.1 °F 29.3 °F 79% 29.84 in 10.0 mi East 9.2 mph - N/A   Overcast
9:15 AM 35.2 °F 28.8 °F 29.3 °F 79% 29.85 in 10.0 mi East 8.1 mph - N/A   Overcast
9:35 AM 35.6 °F 29.9 °F 29.5 °F 78% 29.83 in 10.0 mi East 6.9 mph - N/A   Overcast
9:55 AM 35.8 °F 30.9 °F 29.8 °F 79% 29.82 in 10.0 mi East 5.8 mph - N/A Rain Light Rain
10:15 AM 35.8 °F 28.8 °F 30.0 °F 80% 29.81 in 10.0 mi East 9.2 mph - N/A   Light Drizzle
10:35 AM 35.8 °F 26.9 °F 30.6 °F 81% 29.80 in 10.0 mi East 13.8 mph - N/A Rain Light Rain
10:55 AM 36.0 °F 29.0 °F 30.9 °F 82% 29.78 in 10.0 mi East 9.2 mph - N/A   Overcast
11:15 AM 36.0 °F 28.0 °F 30.7 °F 81% 29.77 in 10.0 mi East 11.5 mph - N/A   Overcast
11:35 AM 36.0 °F 27.5 °F 30.6 °F 81% 29.76 in 10.0 mi East 12.7 mph 19.6 mph N/A   Overcast
11:55 AM 36.0 °F 29.0 °F 30.6 °F 81% 29.76 in 10.0 mi East 9.2 mph - N/A   Overcast
12:15 PM 35.8 °F 27.8 °F 30.2 °F 80% 29.76 in 7.0 mi East 11.5 mph - N/A   Overcast
12:35 PM 35.6 °F 27.5 °F 30.9 °F 83% 29.75 in 2.5 mi East 11.5 mph - N/A   Drizzle
12:55 PM 34.9 °F 27.7 °F 31.3 °F 87% 29.74 in 1.8 mi East 9.2 mph - N/A Rain Rain
1:15 PM 34.7 °F 28.1 °F 31.5 °F 88% 29.73 in 1.8 mi East 8.1 mph - N/A Rain Rain
1:35 PM 34.7 °F 26.9 °F 31.5 °F 88% 29.70 in 2.0 mi East 10.4 mph - N/A Rain Light Rain
1:55 PM 34.7 °F 28.8 °F 31.6 °F 89% 29.69 in 2.0 mi East 6.9 mph - N/A Rain Light Rain
2:15 PM 34.3 °F 27.7 °F 31.5 °F 89% 29.69 in 1.5 mi East 8.1 mph - N/A Rain Rain
2:35 PM 34.3 °F 29.2 °F 31.6 °F 90% 29.67 in 1.8 mi East 5.8 mph - N/A   Drizzle
2:55 PM 34.3 °F 28.4 °F 31.6 °F 90% 29.66 in 2.0 mi East 6.9 mph - 0.01 in Rain Light Rain
3:15 PM 34.0 °F - 31.5 °F 90% 29.66 in 1.8 mi Calm Calm - 0.02 in Snow Light Snow
3:35 PM 33.8 °F - 31.3 °F 90% 29.66 in 1.5 mi Calm Calm - 0.04 in Snow Light Snow
3:55 PM 33.3 °F - 30.7 °F 90% 29.67 in 1.0 mi Calm Calm - 0.06 in Rain Rain
4:15 PM 32.9 °F 29.8 °F 30.6 °F 91% 29.66 in 1.0 mi NNW 3.5 mph - 0.01 in Rain Light Rain
4:35 PM 32.9 °F 28.5 °F 30.6 °F 91% 29.66 in 0.5 mi NW 4.6 mph - 0.03 in Snow Light Snow
4:55 PM 32.9 °F 28.5 °F 30.6 °F 91% 29.66 in 0.5 mi NW 4.6 mph - 0.06 in Snow Light Snow
5:15 PM 32.9 °F 28.5 °F 30.7 °F 92% 29.67 in 0.5 mi NNW 4.6 mph - 0.01 in Snow Snow
5:35 PM 32.9 °F 28.5 °F 30.6 °F 91% 29.66 in 0.5 mi North 4.6 mph - 0.03 in Snow Light Snow
5:55 PM 32.9 °F 28.5 °F 30.6 °F 91% 29.66 in 0.5 mi North 4.6 mph - 0.04 in Snow Light Snow
6:15 PM 32.5 °F 28.1 °F 30.6 °F 92% 29.67 in 0.5 mi NNW 4.6 mph - 0.01 in Snow Light Snow
6:35 PM 32.5 °F 26.2 °F 30.6 °F 92% 29.67 in 0.8 mi North 6.9 mph - 0.02 in Snow Light Snow
6:55 PM 32.4 °F 25.3 °F 30.2 °F 92% 29.68 in 1.8 mi NNW 8.1 mph - 0.03 in Snow Light Snow
7:15 PM 32.2 °F 25.8 °F 30.2 °F 92% 29.69 in 1.8 mi NNW 6.9 mph - N/A Snow Light Snow
7:35 PM 32.0 °F 24.2 °F 29.8 °F 92% 29.69 in 1.8 mi NNW 9.2 mph - 0.01 in Snow Light Snow
7:55 PM 32.0 °F 24.8 °F 29.7 °F 91% 29.70 in 1.5 mi NW 8.1 mph - 0.01 in Snow Light Snow
8:15 PM 31.8 °F 23.3 °F 29.1 °F 90% 29.70 in 1.2 mi NNW 10.4 mph - N/A Snow Light Snow
8:35 PM 31.1 °F 21.9 °F 28.4 °F 90% 29.71 in 1.2 mi NNW 11.5 mph - N/A Snow Light Snow
8:55 PM 30.9 °F 22.2 °F 28.2 °F 90% 29.71 in 1.2 mi NNW 10.4 mph - N/A Snow Light Snow
9:15 PM 30.2 °F 21.9 °F 27.5 °F 90% 29.71 in 1.5 mi NNW 9.2 mph - N/A Snow Light Snow
9:35 PM 29.8 °F 20.9 °F 27.0 °F 89% 29.71 in 2.0 mi NNW 10.4 mph - N/A Snow Light Snow
9:55 PM 29.7 °F 20.7 °F 26.6 °F 88% 29.73 in 1.8 mi North 10.4 mph - N/A Snow Light Snow
10:15 PM 29.3 °F 20.2 °F 26.2 °F 88% 29.74 in 1.5 mi NNW 10.4 mph - N/A Snow Light Snow
10:35 PM 29.1 °F 20.0 °F 26.1 °F 88% 29.74 in 1.8 mi NNW 10.4 mph - N/A Snow Light Snow
10:55 PM 28.8 °F 19.5 °F 25.5 °F 88% 29.75 in 1.8 mi NNW 10.4 mph - N/A Snow Light Snow
11:15 PM 28.4 °F 19.1 °F 25.0 °F 87% 29.75 in 1.8 mi NNW 10.4 mph - N/A Snow Light Snow
11:35 PM 28.2 °F 17.7 °F 24.8 °F 87% 29.76 in 2.0 mi NNW 12.7 mph - N/A Snow Light Snow
11:55 PM 28.2 °F 18.9 °F 24.8 °F 87% 29.76 in 1.5 mi NNW 10.4 mph - N/A Snow Light Snow